[[[{"header":{"parameterUnit":"kt","parameterCategory":2,"dx":1,"dy":1,"la1":30.253999710083008,"la2":30.299108505249023,"lo1":-89.0895004272461,"lo2":-89.04439544677734,"nx":28,"ny":28,"refTime":"2022-10-22T21:00:00:Z","depth":"0","parameterNumber":2,"parameterNumberName":"U-component_of_CURRENTS"},"data":[-0.1879,-0.1849,-0.1849,-0.1827,-0.1884,-0.1895,-0.1935,-0.2003,-0.2167,-0.2322,-0.246,-0.2657,-0.2484,-0.2464,-0.2194,-0.2076,-0.2046,-0.1984,-0.1995,-0.2215,-0.2254,-0.2292,-0.2224,-0.1923,-0.1923,-0.1748,-0.1747,-0.1746,-0.1904,-0.1912,-0.196,-0.2058,-0.2089,-0.2207,-0.2345,-0.2408,-0.2533,-0.2799,-0.2985,-0.2979,-0.2797,-0.267,-0.2331,-0.2194,-0.217,-0.2169,-0.2253,-0.2216,-0.2408,-0.233,-0.2047,-0.2047,-0.2047,-0.2047,-0.2047,-0.2047,-0.1997,-0.2015,-0.2104,-0.2197,-0.2306,-0.2389,-0.2469,-0.2691,-0.2869,-0.3111,-0.3278,-0.3393,-0.3296,-0.2999,-0.2846,-0.2556,-0.2649,-0.2504,-0.2568,-0.2608,-0.2466,-0.2614,-0.2445,-0.2446,-0.2448,-0.2449,-0.245,0,-0.2089,-0.2117,-0.2251,-0.2359,-0.248,-0.2656,-0.2864,-0.2944,-0.3293,-0.3468,-0.3612,-0.3669,-0.3582,-0.3384,-0.3174,-0.303,-0.3056,-0.3006,-0.2997,-0.2839,-0.2807,-0.266,-0.2929,-0.2933,-0.2937,-0.294,-0.2942,-0.2944,-0.2131,-0.2207,-0.2468,-0.2542,-0.2653,-0.2878,-0.3009,-0.3345,-0.3473,-0.3784,-0.3794,-0.387,-0.387,-0.3721,-0.3507,-0.3326,-0.3308,-0.3119,-0.3068,-0.2994,-0.2959,-0.2972,-0.2902,-0.2989,-0.2984,-0.2979,-0.2975,0,-0.2124,-0.2295,-0.2501,-0.2815,-0.2895,-0.3033,-0.3324,-0.3477,-0.3729,-0.3856,-0.3895,-0.4082,-0.4022,-0.3974,-0.3868,-0.3738,-0.351,-0.3473,-0.3366,-0.3261,-0.297,-0.2996,-0.301,-0.2924,-0.3259,-0.3254,-0.325,0,-0.2201,-0.2351,-0.2596,-0.269,-0.2922,-0.3148,-0.3383,-0.3566,-0.379,-0.3902,-0.4048,-0.4076,-0.4069,-0.4013,-0.389,-0.368,-0.3802,-0.3485,-0.3392,-0.3311,-0.3281,-0.324,-0.326,-0.3687,-0.3687,-0.3687,-0.3687,0,-0.2115,-0.2405,-0.2601,-0.2687,-0.2985,-0.3131,-0.3293,-0.3537,-0.3677,-0.3882,-0.3937,-0.4049,-0.4022,-0.3974,-0.3798,-0.3767,-0.3728,-0.3652,-0.3397,-0.3379,-0.3303,-0.3269,-0.3325,-0.3686,-0.3686,-0.3686,-0.3686,0,-0.2117,-0.2269,-0.2499,-0.2797,-0.2861,-0.2988,-0.3287,-0.3452,-0.3652,-0.3726,-0.3815,-0.3786,-0.3876,-0.3712,-0.3725,-0.3677,-0.3583,-0.3496,-0.3492,-0.3313,-0.3116,-0.3036,-0.3089,-0.3042,-0.3344,-0.3342,-0.334,0,-0.2019,-0.2235,-0.2325,-0.2557,-0.2681,-0.2778,-0.2976,-0.3136,-0.3232,-0.3384,-0.3401,-0.3505,-0.3421,-0.3426,-0.3457,-0.3389,-0.3421,-0.337,-0.3293,-0.3293,-0.31,-0.3177,-0.3077,-0.3069,-0.3315,-0.3318,-0.332,0,-0.1909,-0.2105,-0.212,-0.2244,-0.2383,-0.246,-0.2652,-0.2848,-0.2991,-0.3028,-0.3217,-0.3309,-0.3263,-0.3329,-0.3295,-0.3316,-0.3366,-0.3209,-0.3207,-0.3212,-0.3373,-0.3163,-0.3159,-0.3276,-0.328,-0.3284,-0.33,0,-0.1939,-0.2026,-0.2058,-0.2201,-0.2273,-0.235,-0.2455,-0.2536,-0.2582,-0.2665,-0.2817,-0.2824,-0.2959,-0.2951,-0.2959,-0.3112,-0.3046,-0.2977,-0.2967,-0.3051,-0.3036,-0.3053,-0.2842,-0.2841,-0.284,-0.2839,0,0,-0.1829,-0.194,-0.193,-0.2022,-0.2107,-0.2094,-0.2216,-0.2275,-0.238,-0.2477,-0.2408,-0.2602,-0.264,-0.2838,-0.2874,-0.2849,-0.2828,-0.2916,-0.2993,-0.3009,-0.3025,-0.3018,-0.3035,-0.2837,-0.2836,-0.2836,-0.2836,0,-0.1851,-0.1851,-0.1908,-0.1962,-0.2033,-0.2084,-0.2095,-0.217,-0.2232,-0.2346,-0.2372,-0.2432,-0.2557,-0.2655,-0.2716,-0.2815,-0.2807,-0.2809,-0.2967,-0.2979,-0.2998,-0.3014,-0.3011,-0.3026,-0.2833,-0.2833,-0.2833,0,-0.1821,-0.1875,-0.1888,-0.1964,-0.2003,-0.2092,-0.2061,-0.2099,-0.2214,-0.2193,-0.2344,-0.2351,-0.2435,-0.2553,-0.2604,-0.2596,-0.2778,-0.2727,-0.2733,-0.2826,-0.284,-0.286,-0.2879,-0.2646,-0.2646,-0.2645,0,0,-0.1839,-0.1871,-0.1943,-0.1975,-0.1994,-0.2049,-0.2072,-0.2101,-0.2158,-0.2176,-0.225,-0.2325,-0.241,-0.2467,-0.2535,-0.2637,-0.265,-0.2706,-0.2715,-0.2722,-0.2816,-0.2833,-0.2853,-0.2644,-0.2644,-0.2644,0,0,-0.1849,-0.1926,-0.195,-0.1982,-0.2038,-0.2105,-0.2114,-0.2136,-0.2183,-0.2182,-0.2254,-0.2276,-0.2375,-0.2409,-0.2375,-0.2566,-0.2526,-0.2534,-0.2566,-0.2577,-0.2586,-0.2685,-0.2417,0,0,0,0,0,-0.1911,-0.1919,-0.194,-0.1955,-0.2037,-0.2098,-0.2107,-0.2143,-0.2138,-0.2148,-0.2204,-0.2238,-0.2413,-0.2384,-0.2405,-0.2493,-0.262,-0.2624,-0.2628,-0.269,-0.2701,-0.2711,0,0,0,0,0,0,-0.1918,-0.1936,-0.194,-0.2008,-0.2028,-0.2097,-0.2108,-0.2118,-0.2138,-0.2141,-0.2224,-0.2241,-0.2294,-0.2377,-0.2396,-0.2479,-0.2411,-0.2621,-0.2625,-0.2628,-0.2694,-0.2703,-0.2711,0,0,0,0,0,-0.1923,-0.1938,-0.206,-0.2008,-0.2024,-0.2079,-0.2107,-0.2116,-0.2125,-0.2217,-0.2232,-0.2151,-0.2292,-0.2313,-0.2388,-0.247,-0.2398,-0.2405,-0.2624,-0.2627,-0.2629,-0.2698,0,0,0,0,0,0,-0.1927,-0.1937,-0.2064,-0.2071,-0.2006,-0.2076,-0.2088,-0.2114,-0.2202,-0.2216,-0.215,-0.2151,-0.2292,-0.2308,-0.2323,-0.2466,-0.2388,-0.2395,-0.2399,-0.2626,-0.2628,-0.263,0,0,0,0,0,0,-0.1929,-0.1941,-0.2067,-0.2062,-0.2068,-0.2072,-0.2083,-0.2153,-0.2204,-0.2129,-0.2133,-0.215,-0.2291,-0.2304,-0.2316,-0.2422,-0.2381,-0.2387,-0.2392,-0.2394,-0.2628,-0.2629,0,0,0,0,0,0,-0.1935,-0.1945,-0.206,-0.2065,-0.207,-0.2139,-0.2137,-0.2228,-0.2165,-0.2125,-0.2165,-0.2165,-0.2288,-0.23,-0.2311,-0.2411,-0.2419,-0.2381,-0.2385,-0.2388,-0.239,0,0,0,0,0,0,0,-0.194,-0.1863,-0.2033,-0.2067,-0.2071,-0.213,-0.2131,-0.2132,-0.2165,-0.2165,-0.2165,-0.2165,-0.2344,-0.2351,-0.2358,-0.2403,0,0,-0.238,-0.2383,0,0,0,0,0,0,0,0,-0.1859,-0.1862,-0.2033,-0.2034,-0.2036,-0.213,-0.2131,-0.2132,-0.2165,-0.2165,-0.2165,-0.2165,-0.2346,-0.2351,-0.2357,0,0,0,0,0,0,0,0,0,0,0,0,0,0,0,-0.2033,-0.2034,0,-0.213,-0.2131,-0.2132,-0.2165,-0.2165,-0.2165,-0.2165,-0.2347,-0.2352,-0.2357,0,0,0,0,0,0,0,0,0,0,0,0,0,0,0,0,0,0,0,0,0,0,0,0,0,0,0,0,0,0,0,0,0,0,0,0,0,0,0,0,0,0,0,0,0,0,0,0,0,0,0,0,0,0,0,0,0,0,0,0,0,0,0,0,0,0,0,0,0]}],[{"header":{"parameterUnit":"kt","parameterCategory":2,"dx":1,"dy":1,"la1":30.253999710083008,"la2":30.299108505249023,"lo1":-89.0895004272461,"lo2":-89.04439544677734,"nx":28,"ny":28,"refTime":"2022-10-22T21:00:00:Z","depth":"0","parameterNumber":3,"parameterNumberName":"V-component_of_CURRENTS"},"data":[0.0222,0.0119,0.006,-0.0055,-0.0084,-0.0142,-0.0111,0.0015,0.0093,0.0351,0.0403,0.0553,0.114,0.2043,0.2452,0.2508,0.2733,0.2725,0.298,0.2651,0.2639,0.2628,0.2548,0.2749,0.2749,0.3158,0.3162,0.3165,0.0249,0.0179,0.0106,0.007,0.0012,0.0028,0.0062,0.0097,0.0302,0.0475,0.0809,0.111,0.1532,0.1838,0.216,0.2377,0.2424,0.2513,0.2487,0.2557,0.2231,0.2132,0.2247,0.2247,0.2247,0.2247,0.2247,0.2247,0.0315,0.0277,0.024,0.0179,0.0152,0.0147,0.0142,0.0255,0.0371,0.0589,0.0927,0.1186,0.1622,0.2024,0.2219,0.2335,0.2427,0.2345,0.2443,0.2498,0.251,0.2168,0.2328,0.233,0.2332,0.2333,0.2334,0,0.0386,0.0359,0.0367,0.0319,0.0299,0.0287,0.0299,0.0312,0.0443,0.058,0.0906,0.1169,0.159,0.1852,0.2144,0.2287,0.233,0.2301,0.2422,0.2185,0.224,0.2359,0.1984,0.2086,0.2087,0.2087,0.2087,0.2088,0.0478,0.0441,0.0485,0.0468,0.0511,0.0473,0.0443,0.0509,0.0517,0.0741,0.0784,0.1078,0.1347,0.181,0.1973,0.2254,0.2343,0.2299,0.2172,0.2285,0.2418,0.2468,0.2527,0.2093,0.2092,0.2092,0.2091,0,0.0505,0.0597,0.0614,0.0683,0.0675,0.062,0.0651,0.0607,0.0663,0.071,0.0734,0.0955,0.1244,0.145,0.1751,0.1865,0.2161,0.2185,0.2034,0.2074,0.2281,0.2356,0.2612,0.2702,0.2411,0.2413,0.2415,0,0.0684,0.0679,0.0813,0.0813,0.074,0.0834,0.0742,0.0735,0.0772,0.0791,0.0869,0.0972,0.1161,0.1363,0.1526,0.1814,0.1804,0.1951,0.2018,0.1867,0.1861,0.201,0.2086,0.1909,0.1907,0.1905,0.1903,0,0.0793,0.0918,0.0897,0.0927,0.1007,0.0966,0.0946,0.0925,0.0895,0.0916,0.096,0.1042,0.1147,0.1282,0.152,0.1487,0.179,0.1777,0.1949,0.1958,0.1908,0.191,0.202,0.19,0.1899,0.1898,0.1898,0,0.099,0.107,0.1083,0.1141,0.1161,0.1123,0.1029,0.0988,0.0994,0.1018,0.1058,0.1132,0.1197,0.1252,0.1452,0.1394,0.1524,0.1637,0.165,0.1741,0.1812,0.1903,0.1891,0.199,0.1855,0.1853,0.1851,0,0.1033,0.1134,0.1248,0.1227,0.1278,0.1333,0.1249,0.1243,0.1237,0.1213,0.1279,0.1261,0.1307,0.1324,0.1366,0.1494,0.155,0.1453,0.1734,0.1744,0.1792,0.1781,0.163,0.1863,0.1829,0.1831,0.1833,0,0.1082,0.1321,0.1316,0.1349,0.1461,0.1482,0.1421,0.141,0.1366,0.1398,0.136,0.1323,0.1399,0.1388,0.1421,0.1463,0.1526,0.153,0.1536,0.1653,0.1703,0.1749,0.177,0.1534,0.1535,0.1535,0.1815,0,0.121,0.1295,0.1347,0.1458,0.1492,0.1553,0.161,0.1585,0.159,0.1606,0.1572,0.1594,0.1575,0.1565,0.1571,0.1542,0.1615,0.1625,0.1678,0.1625,0.176,0.1774,0.1647,0.1649,0.1651,0.1653,0,0,0.1184,0.131,0.1467,0.155,0.1589,0.1705,0.1731,0.1728,0.1785,0.1767,0.1797,0.1751,0.1752,0.1681,0.1642,0.1653,0.1727,0.165,0.1642,0.164,0.1639,0.1764,0.1775,0.1656,0.1657,0.1657,0.1658,0,0.1254,0.1374,0.1449,0.1529,0.1695,0.1729,0.1762,0.1878,0.1866,0.1838,0.1849,0.1847,0.1796,0.1773,0.1756,0.1682,0.1767,0.1672,0.1602,0.1656,0.1652,0.1649,0.1769,0.1778,0.1663,0.1662,0.1662,0,0.1281,0.142,0.1468,0.1646,0.1726,0.1766,0.1861,0.1958,0.1925,0.1982,0.19,0.1918,0.1908,0.1847,0.1831,0.1856,0.1827,0.1795,0.1787,0.1789,0.1849,0.1843,0.1837,0.1911,0.1911,0.1912,0,0,0.1326,0.1421,0.1603,0.1675,0.1745,0.1841,0.1885,0.1938,0.1984,0.198,0.1966,0.1955,0.1925,0.1913,0.1896,0.1856,0.193,0.1822,0.181,0.18,0.1797,0.1853,0.1847,0.1913,0.1913,0.1913,0,0,0.1338,0.1565,0.1606,0.1723,0.1811,0.193,0.1955,0.1993,0.1979,0.1988,0.1987,0.1985,0.1943,0.196,0.198,0.1894,0.1948,0.1944,0.1864,0.185,0.1839,0.1834,0.1999,0,0,0,0,0,0.1496,0.1553,0.1589,0.1632,0.1813,0.192,0.1931,0.1988,0.2006,0.1994,0.1988,0.2005,0.1959,0.1977,0.1976,0.1922,0.1935,0.1931,0.1927,0.1817,0.1801,0.1789,0,0,0,0,0,0,0.1515,0.1566,0.1589,0.1725,0.1769,0.1917,0.1941,0.1952,0.2006,0.2007,0.2004,0.2004,0.1999,0.1979,0.1978,0.1925,0.1999,0.1933,0.193,0.1927,0.1811,0.1799,0.1788,0,0,0,0,0,0.153,0.1571,0.1863,0.172,0.1758,0.1862,0.1938,0.1948,0.1956,0.2,0.2001,0.2008,0.1999,0.1998,0.1979,0.1924,0.2,0.2,0.1931,0.1929,0.1926,0.1805,0,0,0,0,0,0,0.1541,0.1513,0.1869,0.1881,0.1728,0.185,0.1874,0.1944,0.1941,0.1951,0.2004,0.2004,0.1998,0.1998,0.1998,0.1921,0.2001,0.2,0.2,0.1929,0.1927,0.1925,0,0,0,0,0,0,0.1494,0.1522,0.1874,0.188,0.1891,0.1839,0.1862,0.1858,0.1938,0.1935,0.1943,0.2004,0.2006,0.1998,0.1997,0.1986,0.2001,0.2001,0.2,0.2,0.1928,0.1926,0,0,0,0,0,0,0.1506,0.1529,0.1874,0.1883,0.1893,0.2003,0.1829,0.1995,0.1998,0.1929,0.2,0.2,0.2006,0.2006,0.1997,0.1986,0.1986,0.2001,0.2001,0.2001,0.2001,0,0,0,0,0,0,0,0.1515,0.136,0.1837,0.1886,0.1894,0.1999,0.1998,0.1997,0.1998,0.1999,0.1999,0.2,0.2004,0.2003,0.2003,0.1986,0,0,0.2001,0.2001,0,0,0,0,0,0,0,0,0.1349,0.1357,0.1838,0.1843,0.1847,0.1999,0.1998,0.1998,0.1998,0.1999,0.1999,0.2,0.2004,0.2003,0.2003,0,0,0,0,0,0,0,0,0,0,0,0,0,0,0,0.1839,0.1842,0,0.1998,0.1998,0.1998,0.1998,0.1999,0.1999,0.2,0.2003,0.2003,0.2003,0,0,0,0,0,0,0,0,0,0,0,0,0,0,0,0,0,0,0,0,0,0,0,0,0,0,0,0,0,0,0,0,0,0,0,0,0,0,0,0,0,0,0,0,0,0,0,0,0,0,0,0,0,0,0,0,0,0,0,0,0,0,0,0,0,0,0,0,0]}]],[[{"header":{"parameterUnit":"kt","parameterCategory":2,"dx":1,"dy":1,"la1":30.253999710083008,"la2":30.299108505249023,"lo1":-89.0895004272461,"lo2":-89.04439544677734,"nx":28,"ny":28,"refTime":"2022-10-22T21:00:00:Z","depth":"2","parameterNumber":2,"parameterNumberName":"U-component_of_CURRENTS"},"data":[-0.2724,-0.2777,-0.2798,-0.2841,-0.2831,-0.2794,-0.28,-0.2693,-0.2433,-0.1987,-0.1556,-0.115,-0.1393,-0.0984,-0.1057,-0.1013,-0.1289,-0.0991,-0.1751,-0.1695,-0.1748,-0.2024,-0.1886,0,0,0,0,0,-0.2692,-0.2698,-0.2746,-0.2827,-0.2857,-0.2821,-0.2904,-0.2917,-0.3009,-0.2621,-0.2506,-0.2007,-0.1768,-0.1789,-0.1533,-0.1558,-0.1545,-0.1624,-0.1549,-0.161,-0.1665,-0.1537,-0.1059,-0.1058,-0.1056,-0.1055,0,0,-0.2653,-0.2685,-0.2744,-0.2783,-0.2819,-0.2859,-0.2932,-0.303,-0.3174,-0.3113,-0.3178,-0.2976,-0.2872,-0.2366,-0.2297,-0.2253,-0.2449,-0.2353,-0.2374,-0.2403,-0.2311,-0.2228,-0.2039,-0.2043,-0.2047,-0.2051,-0.2054,0,-0.2685,-0.2649,-0.2754,-0.2783,-0.2831,-0.2931,-0.3033,-0.3105,-0.3325,-0.3438,-0.3561,-0.3601,-0.3444,-0.3142,-0.2951,-0.2827,-0.2908,-0.2743,-0.3316,-0.2543,-0.246,-0.2349,-0.2364,-0.2333,-0.234,-0.2345,-0.2348,-0.2351,-0.2679,-0.2692,-0.2792,-0.2832,-0.2874,-0.3003,-0.3084,-0.3309,-0.3403,-0.3614,-0.3621,-0.3714,-0.3714,-0.3627,-0.3389,-0.3241,-0.34,-0.2893,-0.2819,-0.3275,-0.3164,-0.3151,-0.3138,-0.2421,-0.2412,-0.2405,-0.2399,0,-0.2684,-0.2727,-0.2813,-0.2974,-0.3,-0.3091,-0.3261,-0.3397,-0.3577,-0.3671,-0.3711,-0.3873,-0.3853,-0.3802,-0.3721,-0.3596,-0.3482,-0.3398,-0.3017,-0.288,-0.3166,-0.3148,-0.3291,-0.3287,-0.3284,-0.3281,-0.3279,0,-0.2725,-0.2765,-0.2845,-0.2887,-0.3027,-0.3136,-0.3301,-0.3444,-0.3611,-0.3689,-0.3823,-0.3852,-0.3842,-0.379,-0.3682,-0.3526,-0.3612,-0.3374,-0.3277,-0.2957,-0.2912,-0.3362,-0.3345,-0.3508,-0.3508,-0.3508,-0.3508,0,-0.2655,-0.2764,-0.2849,-0.2872,-0.3017,-0.3105,-0.3205,-0.3363,-0.3464,-0.3646,-0.369,-0.3805,-0.3773,-0.3756,-0.3574,-0.3543,-0.3528,-0.343,-0.3255,-0.324,-0.2985,-0.294,-0.3507,-0.3507,-0.3507,-0.3507,-0.3507,0,-0.2628,-0.269,-0.2784,-0.2914,-0.2945,-0.2993,-0.3182,-0.3282,-0.3422,-0.3465,-0.3557,-0.352,-0.3604,-0.3449,-0.3475,-0.3427,-0.3346,-0.3255,-0.325,-0.3191,-0.2965,-0.2636,-0.2652,-0.3075,-0.3072,-0.307,-0.3067,0,-0.2568,-0.2643,-0.2645,-0.2737,-0.2783,-0.2801,-0.2909,-0.2997,-0.3036,-0.3129,-0.3137,-0.3202,-0.3121,-0.3132,-0.3166,-0.3094,-0.3134,-0.3066,-0.3054,-0.3056,-0.2914,-0.3009,-0.2647,-0.263,-0.3035,-0.3039,-0.3041,0,-0.2475,-0.2491,-0.2472,-0.2509,-0.251,-0.2559,-0.2655,-0.277,-0.2866,-0.2824,-0.2962,-0.3004,-0.2975,-0.304,-0.2996,-0.302,-0.3063,-0.2943,-0.2943,-0.2928,-0.3109,-0.2974,-0.2982,-0.2985,-0.2991,-0.2995,-0.3016,0,-0.2359,-0.2362,-0.2385,-0.2407,-0.244,-0.2479,-0.2489,-0.2521,-0.2491,-0.252,-0.2616,-0.2594,-0.2707,-0.2658,-0.2674,-0.2816,-0.2772,-0.2706,-0.2706,-0.2788,-0.2774,-0.2794,-0.2559,-0.2559,-0.2559,-0.2559,0,0,-0.2243,-0.2273,-0.2249,-0.2276,-0.2305,-0.2244,-0.2313,-0.233,-0.2344,-0.2407,-0.2305,-0.2434,-0.2424,-0.2595,-0.2618,-0.2578,-0.2586,-0.265,-0.2732,-0.275,-0.2768,-0.2761,-0.278,-0.2559,-0.2559,-0.2559,-0.2559,0,-0.2204,-0.2163,-0.2223,-0.2224,-0.2225,-0.2241,-0.2231,-0.2239,-0.2248,-0.2293,-0.228,-0.2304,-0.2364,-0.2435,-0.2484,-0.2562,-0.2556,-0.2544,-0.2703,-0.2726,-0.2745,-0.2762,-0.2758,-0.2775,-0.2559,-0.2559,-0.2559,0,-0.2129,-0.2123,-0.2154,-0.2159,-0.2168,-0.2212,-0.2165,-0.2191,-0.2239,-0.2207,-0.2244,-0.2239,-0.2313,-0.2383,-0.2407,-0.2405,-0.2542,-0.2484,-0.2486,-0.262,-0.2649,-0.2669,-0.2688,-0.2453,-0.2452,-0.2451,0,0,-0.2101,-0.2133,-0.2137,-0.2154,-0.2155,-0.2162,-0.218,-0.2177,-0.2199,-0.2202,-0.2201,-0.2234,-0.2294,-0.2316,-0.2364,-0.2434,-0.2477,-0.2467,-0.2473,-0.2476,-0.2608,-0.2641,-0.266,-0.2449,-0.2449,-0.2448,0,0,-0.2101,-0.2123,-0.209,-0.2114,-0.213,-0.2174,-0.2199,-0.218,-0.2204,-0.2186,-0.2198,-0.2204,-0.2243,-0.2278,-0.224,-0.2363,-0.2347,-0.2356,-0.2328,-0.2335,-0.234,-0.2485,-0.2236,0,0,0,0,0,-0.2095,-0.2123,-0.2092,-0.2095,-0.2129,-0.2182,-0.2193,-0.2196,-0.215,-0.2168,-0.2175,-0.2168,-0.2276,-0.2242,-0.2254,-0.2283,-0.2414,-0.242,-0.2426,-0.2406,-0.2413,-0.2419,0,0,0,0,0,0,-0.2096,-0.2096,-0.2093,-0.213,-0.2139,-0.2181,-0.215,-0.2154,-0.2149,-0.2142,-0.217,-0.2172,-0.2198,-0.2236,-0.2247,-0.2274,-0.2232,-0.2417,-0.2422,-0.2426,-0.2409,-0.2414,-0.2419,0,0,0,0,0,-0.2097,-0.2097,-0.2133,-0.2133,-0.214,-0.2156,-0.2147,-0.215,-0.214,-0.2185,-0.2185,-0.2131,-0.22,-0.2208,-0.2243,-0.2268,-0.2224,-0.2229,-0.242,-0.2424,-0.2428,-0.2411,0,0,0,0,0,0,-0.2097,-0.2123,-0.2137,-0.2142,-0.2097,-0.2154,-0.2155,-0.2146,-0.2181,-0.2182,-0.215,-0.2146,-0.2203,-0.2208,-0.2215,-0.2266,-0.2218,-0.2222,-0.2225,-0.2423,-0.2426,-0.2429,0,0,0,0,0,0,-0.2123,-0.2127,-0.214,-0.2094,-0.2095,-0.2152,-0.2153,-0.2207,-0.218,-0.2145,-0.2142,-0.2147,-0.2175,-0.2209,-0.2214,-0.2302,-0.2213,-0.2217,-0.222,-0.2222,-0.2426,-0.2428,0,0,0,0,0,0,-0.2127,-0.213,-0.2093,-0.2094,-0.2094,-0.216,-0.2201,-0.2226,-0.2168,-0.2144,-0.2159,-0.2155,-0.2175,-0.2181,-0.2213,-0.23,-0.2301,-0.2213,-0.2216,-0.2218,-0.2219,0,0,0,0,0,0,0,-0.2129,-0.2084,-0.2098,-0.2093,-0.2094,-0.2192,-0.2194,-0.2196,-0.2167,-0.2163,-0.216,-0.2156,-0.219,-0.2194,-0.2199,-0.2298,0,0,-0.2213,-0.2215,0,0,0,0,0,0,0,0,-0.2085,-0.2084,-0.2098,-0.2099,-0.21,-0.2192,-0.2194,-0.2195,-0.2166,-0.2163,-0.216,-0.2158,-0.2191,-0.2194,-0.2198,0,0,0,0,0,0,0,0,0,0,0,0,0,0,0,-0.2099,-0.2099,0,-0.2192,-0.2194,-0.2195,-0.2166,-0.2163,-0.2161,-0.2159,-0.2192,-0.2195,-0.2198,0,0,0,0,0,0,0,0,0,0,0,0,0,0,0,0,0,0,0,0,0,0,0,0,0,0,0,0,0,0,0,0,0,0,0,0,0,0,0,0,0,0,0,0,0,0,0,0,0,0,0,0,0,0,0,0,0,0,0,0,0,0,0,0,0,0,0,0,0]}],[{"header":{"parameterUnit":"kt","parameterCategory":2,"dx":1,"dy":1,"la1":30.253999710083008,"la2":30.299108505249023,"lo1":-89.0895004272461,"lo2":-89.04439544677734,"nx":28,"ny":28,"refTime":"2022-10-22T21:00:00:Z","depth":"2","parameterNumber":3,"parameterNumberName":"V-component_of_CURRENTS"},"data":[-0.2434,-0.248,-0.2465,-0.2575,-0.2524,-0.2538,-0.2548,-0.2563,-0.2415,-0.2235,-0.1938,-0.1649,-0.1145,-0.0681,-0.0324,0.0006,0.0234,0.0039,-0.0015,0.0174,0.0208,0.0565,0.0343,0,0,0,0,0,-0.2358,-0.2341,-0.2325,-0.2187,-0.2242,-0.2012,-0.198,-0.1955,-0.2158,-0.1987,-0.2005,-0.1554,-0.1221,-0.0559,-0.0011,0.018,0.0312,0.0324,0.0502,0.0534,0.0567,0.0415,0.0226,0.0229,0.0232,0.0234,0,0,-0.2193,-0.219,-0.2075,-0.1898,-0.178,-0.1748,-0.1654,-0.1551,-0.1652,-0.163,-0.1617,-0.1504,-0.1049,-0.0393,-0.003,0.0429,0.039,0.0535,0.0559,0.0587,0.0422,0.0339,0.024,0.0242,0.0243,0.0244,0.0245,0,-0.2007,-0.1917,-0.1749,-0.16,-0.1367,-0.116,-0.09,-0.0933,-0.0717,-0.0794,-0.1003,-0.1027,-0.0619,-0.037,0.02,0.036,0.0846,0.081,0.1131,0.0843,0.0778,0.0746,0.0751,0.0785,0.0789,0.0793,0.0795,0.0797,-0.1832,-0.1732,-0.1319,-0.1216,-0.092,-0.0595,-0.0488,-0.0125,-0.0175,-0.0099,-0.0251,-0.0043,-0.0141,0.0227,0.0535,0.0868,0.107,0.0929,0.0856,0.1076,0.1043,0.1034,0.1024,0.0847,0.0841,0.0836,0.0831,0,-0.1766,-0.1462,-0.1176,-0.0687,-0.0497,-0.0351,0.011,0.0064,0.0222,0.0109,0.0133,0.0249,0.0376,0.0708,0.0981,0.1048,0.1201,0.1236,0.1115,0.1064,0.1071,0.1053,0.1152,0.1145,0.1138,0.1133,0.1129,0,-0.1542,-0.1278,-0.0807,-0.0638,-0.0399,0.0035,0.0178,0.0278,0.0377,0.0263,0.0464,0.0376,0.0704,0.0833,0.1026,0.1115,0.1245,0.1176,0.1149,0.1058,0.1026,0.1244,0.122,0.1435,0.1433,0.1431,0.143,0,-0.1528,-0.0979,-0.0728,-0.0504,-0.0016,0.017,0.039,0.0494,0.0481,0.0532,0.0511,0.0625,0.065,0.0856,0.0996,0.1011,0.1238,0.1211,0.1134,0.1119,0.1012,0.0976,0.1428,0.1428,0.1427,0.1427,0.1426,0,-0.1275,-0.1046,-0.0698,-0.0203,-0.0087,0.0193,0.0419,0.0538,0.0558,0.0567,0.061,0.0608,0.0704,0.0749,0.0939,0.0901,0.1036,0.1105,0.1111,0.0826,0.073,0.0866,0.0895,0.116,0.1158,0.1155,0.1153,0,-0.1312,-0.0981,-0.0681,-0.0274,-0.0057,0.0218,0.0367,0.0498,0.0555,0.0604,0.0586,0.0613,0.0662,0.0656,0.0769,0.078,0.0927,0.0817,0.0948,0.0951,0.0792,0.0826,0.0715,0.0866,0.1119,0.1123,0.1125,0,-0.1339,-0.0868,-0.0799,-0.0556,-0.0116,-0.0015,0.0205,0.0332,0.0375,0.0539,0.0607,0.0646,0.0606,0.0601,0.059,0.0686,0.0864,0.0728,0.0727,0.0895,0.1071,0.0813,0.0812,0.0885,0.0888,0.0891,0.1098,0,-0.0934,-0.0773,-0.0738,-0.04,-0.0265,-0.0135,0.0098,0.0165,0.0327,0.0416,0.0443,0.0436,0.0466,0.049,0.0492,0.0578,0.0617,0.0557,0.0603,0.0624,0.0699,0.0721,0.0424,0.0421,0.0419,0.0417,0,0,-0.0926,-0.0793,-0.0756,-0.0563,-0.039,-0.0271,-0.0086,0.0002,0.0191,0.0199,0.028,0.0377,0.0371,0.0396,0.0433,0.0369,0.0447,0.0519,0.056,0.0577,0.0591,0.067,0.0693,0.0413,0.0412,0.0412,0.0411,0,-0.0761,-0.0726,-0.0729,-0.0583,-0.0411,-0.0273,-0.024,-0.0018,0.0077,0.0194,0.0283,0.0269,0.0361,0.0375,0.0384,0.0341,0.0473,0.0375,0.0487,0.0539,0.0558,0.0575,0.0656,0.0679,0.0405,0.0406,0.0406,0,-0.0602,-0.0497,-0.054,-0.0445,-0.0333,-0.0166,-0.0115,-0.0049,0.0114,0.013,0.0368,0.0343,0.0329,0.0368,0.0377,0.0384,0.0484,0.0416,0.0422,0.045,0.0505,0.0523,0.054,0.0349,0.035,0.0351,0,0,-0.0464,-0.0489,-0.0343,-0.0397,-0.0338,-0.0153,-0.0122,0.0003,0.0097,0.0146,0.0273,0.0343,0.0349,0.0379,0.0369,0.0365,0.039,0.0422,0.0425,0.0428,0.0458,0.0511,0.0527,0.0355,0.0355,0.0356,0,0,-0.0397,-0.0262,-0.0173,-0.0222,-0.0157,0.0006,-0.0004,0.0128,0.0191,0.0266,0.0372,0.0384,0.0405,0.0381,0.0424,0.0471,0.0438,0.0428,0.0573,0.0575,0.0577,0.0636,0.0559,0,0,0,0,0,-0.019,-0.0286,-0.0208,-0.0194,-0.0064,-0.0039,-0.0021,0.0129,0.0294,0.0256,0.0358,0.0449,0.0422,0.0461,0.0462,0.0569,0.0408,0.0398,0.039,0.0568,0.057,0.0572,0,0,0,0,0,0,-0.0183,-0.0166,-0.0205,-0.0049,-0.002,-0.0032,0.0174,0.0213,0.0297,0.0325,0.0433,0.045,0.0506,0.0468,0.0466,0.057,0.056,0.0404,0.0396,0.0389,0.0569,0.057,0.0572,0,0,0,0,0,-0.0178,-0.0163,0.0007,-0.0046,-0.002,0.015,0.0179,0.0214,0.0306,0.0374,0.0401,0.0419,0.0501,0.0507,0.0468,0.0571,0.0562,0.0561,0.0399,0.0393,0.0387,0.0569,0,0,0,0,0,0,-0.0173,-0.0119,0.0015,0.0028,-0.0002,0.0154,0.0185,0.0213,0.0354,0.0381,0.0356,0.0374,0.0496,0.0502,0.0506,0.0573,0.0563,0.0562,0.0562,0.0394,0.0389,0.0385,0,0,0,0,0,0,-0.0126,-0.0109,0.0022,0.007,0.0091,0.0157,0.0184,0.0155,0.0351,0.0331,0.035,0.0362,0.0459,0.0497,0.0501,0.0452,0.0564,0.0563,0.0563,0.0562,0.039,0.0386,0,0,0,0,0,0,-0.0116,-0.0101,0.0069,0.0084,0.0103,0.0266,0.0131,0.0243,0.0435,0.032,0.045,0.0457,0.0449,0.0458,0.0497,0.0445,0.045,0.0564,0.0563,0.0563,0.0563,0,0,0,0,0,0,0,-0.0108,-0.0244,-0.0071,0.0096,0.0112,0.0146,0.015,0.0155,0.0436,0.0442,0.0448,0.0454,0.0569,0.0568,0.0567,0.044,0,0,0.0564,0.0564,0,0,0,0,0,0,0,0,-0.0247,-0.0245,-0.0071,-0.0069,-0.0067,0.0146,0.015,0.0154,0.0437,0.0442,0.0447,0.0452,0.0569,0.0568,0.0567,0,0,0,0,0,0,0,0,0,0,0,0,0,0,0,-0.0071,-0.0069,0,0.0147,0.015,0.0153,0.0438,0.0442,0.0446,0.045,0.0568,0.0568,0.0567,0,0,0,0,0,0,0,0,0,0,0,0,0,0,0,0,0,0,0,0,0,0,0,0,0,0,0,0,0,0,0,0,0,0,0,0,0,0,0,0,0,0,0,0,0,0,0,0,0,0,0,0,0,0,0,0,0,0,0,0,0,0,0,0,0,0,0,0,0]}]],[[{"header":{"parameterUnit":"kt","parameterCategory":2,"dx":1,"dy":1,"la1":30.253999710083008,"la2":30.299108505249023,"lo1":-89.0895004272461,"lo2":-89.04439544677734,"nx":28,"ny":28,"refTime":"2022-10-22T21:00:00:Z","depth":"4","parameterNumber":2,"parameterNumberName":"U-component_of_CURRENTS"},"data":[-0.0756,-0.0734,-0.0704,-0.0624,-0.0601,-0.0593,-0.0654,-0.0773,-0.0727,-0.0894,-0.0873,-0.1028,-0.1046,-0.1096,-0.1118,-0.1156,-0.1501,-0.1443,-0.1442,-0.2111,-0.2153,-0.219,-0.2021,0,0,0,0,0,-0.0799,-0.0763,-0.0752,-0.0775,-0.0771,-0.0811,-0.0913,-0.0986,-0.1149,-0.1042,-0.1155,-0.1113,-0.1155,-0.1111,-0.1171,-0.1297,-0.1745,-0.1365,-0.193,-0.2137,-0.2184,-0.2003,0,0,0,0,0,0,-0.0864,-0.0844,-0.0865,-0.0925,-0.0959,-0.0959,-0.1032,-0.1042,-0.1104,-0.1315,-0.118,-0.1263,-0.1392,-0.1406,-0.143,-0.1551,-0.169,-0.1815,-0.1876,-0.1922,-0.1723,-0.1463,-0.1161,0,0,0,0,0,-0.0935,-0.0975,-0.0991,-0.1052,-0.1118,-0.1154,-0.1244,-0.1273,-0.1433,-0.1593,-0.1486,-0.1518,-0.1536,-0.1643,-0.1755,-0.1879,-0.2363,-0.2268,-0.23,-0.2493,-0.2352,-0.2343,-0.2356,-0.2358,-0.2364,-0.2368,-0.237,0,-0.1044,-0.1046,-0.1152,-0.1187,-0.1257,-0.1349,-0.1401,-0.158,-0.1606,-0.1731,-0.1729,-0.1841,-0.192,-0.1882,-0.2119,-0.2291,-0.233,-0.2383,-0.2586,-0.2425,-0.2406,-0.2406,-0.2405,-0.2407,-0.2404,-0.2401,-0.2398,0,-0.1097,-0.1181,-0.121,-0.1333,-0.1392,-0.1441,-0.1583,-0.1618,-0.1799,-0.1875,-0.1947,-0.2098,-0.2161,-0.2368,-0.262,-0.2646,-0.2699,-0.2655,-0.2873,-0.2864,-0.2481,-0.2465,-0.2468,-0.2455,-0.2443,-0.2433,-0.2425,0,-0.1214,-0.1241,-0.1362,-0.1367,-0.1443,-0.1536,-0.1612,-0.1729,-0.1877,-0.1925,-0.2128,-0.2135,-0.251,-0.2586,-0.2727,-0.2715,-0.2934,-0.2796,-0.2773,-0.3113,-0.3096,-0.3027,-0.2997,-0.3278,-0.3277,-0.3277,-0.3277,0,-0.1255,-0.1357,-0.1386,-0.1416,-0.1521,-0.1582,-0.1651,-0.1782,-0.1837,-0.2021,-0.2099,-0.2304,-0.2423,-0.2627,-0.2725,-0.2811,-0.2949,-0.3062,-0.2806,-0.2776,-0.3013,-0.2984,-0.3276,-0.3276,-0.3276,-0.3276,-0.3276,0,-0.1344,-0.1398,-0.1434,-0.1517,-0.1545,-0.1585,-0.1705,-0.175,-0.1899,-0.1981,-0.2135,-0.2222,-0.2404,-0.2459,-0.2712,-0.2687,-0.2817,-0.2902,-0.2907,-0.2436,-0.2355,-0.2698,-0.2894,-0.2891,-0.2888,-0.2886,-0.2884,0,-0.1351,-0.1415,-0.1487,-0.1522,-0.1552,-0.164,-0.1698,-0.1763,-0.184,-0.1918,-0.206,-0.2167,-0.2231,-0.2332,-0.2479,-0.2589,-0.2718,-0.2629,-0.2723,-0.2721,-0.2399,-0.2492,-0.2792,-0.2848,-0.2852,-0.2856,-0.2858,0,-0.1358,-0.1471,-0.1489,-0.1507,-0.1608,-0.1604,-0.1694,-0.1737,-0.1809,-0.188,-0.1964,-0.213,-0.2187,-0.2222,-0.2296,-0.2421,-0.265,-0.2462,-0.2462,-0.2525,-0.2899,-0.2496,-0.2478,-0.2767,-0.2772,-0.2776,-0.2833,0,-0.1407,-0.1453,-0.1494,-0.1539,-0.1566,-0.1605,-0.164,-0.1677,-0.1752,-0.1766,-0.1903,-0.195,-0.2021,-0.2095,-0.2124,-0.2313,-0.2293,-0.2293,-0.2242,-0.2357,-0.2351,-0.2372,-0.2057,-0.2053,-0.2049,-0.2046,0,0,-0.1391,-0.1417,-0.1459,-0.1502,-0.1544,-0.158,-0.1595,-0.1619,-0.1622,-0.1656,-0.1677,-0.1818,-0.1851,-0.1988,-0.2039,-0.2027,-0.2078,-0.2062,-0.226,-0.2284,-0.2306,-0.2311,-0.2336,-0.2039,-0.2037,-0.2036,-0.2035,0,-0.1378,-0.1435,-0.1461,-0.1471,-0.1539,-0.154,-0.1568,-0.1577,-0.1599,-0.1638,-0.1678,-0.1762,-0.1812,-0.1844,-0.1883,-0.1973,-0.2016,-0.202,-0.2102,-0.2224,-0.2254,-0.228,-0.2291,-0.2316,-0.2025,-0.2026,-0.2026,0,-0.1359,-0.1404,-0.1406,-0.1426,-0.1447,-0.1462,-0.1472,-0.1533,-0.1548,-0.1545,-0.1595,-0.1648,-0.1665,-0.1744,-0.1781,-0.1735,-0.1924,-0.1852,-0.1867,-0.1828,-0.1948,-0.198,-0.2008,-0.1656,-0.1656,-0.1656,0,0,-0.1359,-0.1389,-0.1385,-0.1414,-0.1442,-0.1453,-0.1489,-0.1497,-0.1515,-0.153,-0.1543,-0.1576,-0.1641,-0.1671,-0.168,-0.1744,-0.1726,-0.182,-0.1837,-0.1852,-0.1824,-0.1944,-0.1973,-0.1656,-0.1656,-0.1656,0,0,-0.1334,-0.1361,-0.1353,-0.1408,-0.1387,-0.1386,-0.1458,-0.1467,-0.1489,-0.1545,-0.1547,-0.1554,-0.1649,-0.1601,-0.1599,-0.1715,-0.1621,-0.1623,-0.1812,-0.1832,-0.1848,-0.1821,-0.16,0,0,0,0,0,-0.1299,-0.1353,-0.1346,-0.136,-0.139,-0.1376,-0.1382,-0.1429,-0.1496,-0.1482,-0.1522,-0.1545,-0.1577,-0.1575,-0.1585,-0.1718,-0.1658,-0.1658,-0.1657,-0.1912,-0.1934,-0.1953,0,0,0,0,0,0,-0.1304,-0.1309,-0.1348,-0.1346,-0.136,-0.1374,-0.1406,-0.1414,-0.1494,-0.1498,-0.1535,-0.1543,-0.1529,-0.1573,-0.1581,-0.1709,-0.1598,-0.1658,-0.1658,-0.1657,-0.192,-0.1938,-0.1953,0,0,0,0,0,-0.1309,-0.1314,-0.1345,-0.1348,-0.1358,-0.1433,-0.1404,-0.1412,-0.1458,-0.149,-0.1499,-0.1508,-0.1527,-0.1538,-0.1578,-0.1707,-0.1592,-0.1595,-0.1658,-0.1657,-0.1657,-0.1929,0,0,0,0,0,0,-0.1313,-0.1286,-0.1349,-0.1357,-0.1364,-0.1431,-0.1435,-0.141,-0.1445,-0.1459,-0.1458,-0.146,-0.1525,-0.1534,-0.1543,-0.1709,-0.1588,-0.1591,-0.1593,-0.1657,-0.1657,-0.1657,0,0,0,0,0,0,-0.1288,-0.129,-0.1352,-0.1368,-0.1378,-0.143,-0.1434,-0.1461,-0.1445,-0.1404,-0.1411,-0.146,-0.1547,-0.1532,-0.1538,-0.1576,-0.1584,-0.1587,-0.1589,-0.159,-0.1657,-0.1657,0,0,0,0,0,0,-0.1291,-0.1293,-0.1364,-0.1371,-0.1379,-0.1455,-0.1456,-0.149,-0.1451,-0.14,-0.1454,-0.1456,-0.1546,-0.1551,-0.1535,-0.157,-0.1574,-0.1584,-0.1586,-0.1588,-0.1589,0,0,0,0,0,0,0,-0.1294,-0.125,-0.1331,-0.1374,-0.138,-0.1441,-0.1441,-0.144,-0.1451,-0.1453,-0.1454,-0.1455,-0.1568,-0.1571,-0.1574,-0.1564,0,0,-0.1584,-0.1586,0,0,0,0,0,0,0,0,-0.1251,-0.125,-0.1332,-0.1335,-0.1339,-0.1441,-0.1441,-0.144,-0.1451,-0.1453,-0.1454,-0.1455,-0.1569,-0.1571,-0.1574,0,0,0,0,0,0,0,0,0,0,0,0,0,0,0,-0.1332,-0.1335,0,-0.1441,-0.1441,-0.144,-0.1451,-0.1452,-0.1453,-0.1454,-0.157,-0.1572,-0.1574,0,0,0,0,0,0,0,0,0,0,0,0,0,0,0,0,0,0,0,0,0,0,0,0,0,0,0,0,0,0,0,0,0,0,0,0,0,0,0,0,0,0,0,0,0,0,0,0,0,0,0,0,0,0,0,0,0,0,0,0,0,0,0,0,0,0,0,0,0]}],[{"header":{"parameterUnit":"kt","parameterCategory":2,"dx":1,"dy":1,"la1":30.253999710083008,"la2":30.299108505249023,"lo1":-89.0895004272461,"lo2":-89.04439544677734,"nx":28,"ny":28,"refTime":"2022-10-22T21:00:00:Z","depth":"4","parameterNumber":3,"parameterNumberName":"V-component_of_CURRENTS"},"data":[-0.0833,-0.0926,-0.0979,-0.1105,-0.1196,-0.1306,-0.1366,-0.1443,-0.1388,-0.1497,-0.1384,-0.1457,-0.128,-0.1463,-0.1158,-0.1138,-0.0996,-0.1049,-0.1044,-0.0851,-0.0852,-0.0852,-0.0827,0,0,0,0,0,-0.0837,-0.0888,-0.1014,-0.1166,-0.129,-0.137,-0.1477,-0.1527,-0.1636,-0.1581,-0.1627,-0.1539,-0.1392,-0.1321,-0.1178,-0.1252,-0.1046,-0.1078,-0.0911,-0.0851,-0.0852,-0.0827,0,0,0,0,0,0,-0.0835,-0.0904,-0.1014,-0.1174,-0.1317,-0.1395,-0.1479,-0.1512,-0.1568,-0.1695,-0.1664,-0.1633,-0.1652,-0.1445,-0.1297,-0.1177,-0.1054,-0.0937,-0.0933,-0.0933,-0.0926,-0.0963,-0.0982,0,0,0,0,0,-0.0838,-0.0895,-0.0993,-0.1172,-0.1303,-0.1425,-0.1547,-0.1588,-0.1688,-0.1794,-0.1757,-0.1689,-0.1637,-0.1457,-0.1364,-0.1134,-0.1076,-0.1012,-0.1007,-0.0842,-0.0865,-0.0835,-0.0832,-0.0855,-0.0855,-0.0855,-0.0855,0,-0.0798,-0.0867,-0.106,-0.1156,-0.1249,-0.1409,-0.1489,-0.1603,-0.164,-0.1771,-0.178,-0.1803,-0.1757,-0.1523,-0.1386,-0.1152,-0.1053,-0.1017,-0.0843,-0.0866,-0.0836,-0.0833,-0.0831,-0.0856,-0.0856,-0.0856,-0.0856,0,-0.0768,-0.0852,-0.1,-0.1162,-0.1228,-0.1339,-0.15,-0.1563,-0.1649,-0.1733,-0.1758,-0.1747,-0.1663,-0.1557,-0.137,-0.1221,-0.1048,-0.0971,-0.1046,-0.1018,-0.0834,-0.0831,-0.0857,-0.0856,-0.0856,-0.0856,-0.0856,0,-0.0745,-0.0846,-0.0976,-0.1045,-0.1205,-0.1269,-0.1408,-0.147,-0.1543,-0.16,-0.1579,-0.1587,-0.1477,-0.1421,-0.1227,-0.1072,-0.1102,-0.0853,-0.0825,-0.082,-0.0817,-0.0777,-0.077,-0.084,-0.084,-0.0839,-0.0839,0,-0.0663,-0.0821,-0.0936,-0.0985,-0.1117,-0.12,-0.127,-0.1328,-0.1377,-0.1436,-0.1471,-0.1434,-0.1446,-0.1297,-0.1138,-0.108,-0.1022,-0.0929,-0.0818,-0.0817,-0.0773,-0.0766,-0.0839,-0.0839,-0.0839,-0.0839,-0.0839,0,-0.063,-0.0706,-0.0845,-0.0982,-0.1012,-0.1095,-0.1199,-0.1256,-0.1297,-0.13,-0.1299,-0.1254,-0.1241,-0.1119,-0.1026,-0.1022,-0.0914,-0.0831,-0.083,-0.0781,-0.0723,-0.0758,-0.0804,-0.0804,-0.0803,-0.0803,-0.0802,0,-0.0546,-0.0671,-0.0699,-0.0836,-0.0903,-0.0917,-0.0992,-0.1027,-0.1034,-0.1084,-0.1035,-0.1072,-0.0966,-0.0976,-0.0924,-0.0858,-0.0825,-0.0814,-0.0733,-0.0731,-0.0742,-0.078,-0.0764,-0.0797,-0.0798,-0.0798,-0.0799,0,-0.0466,-0.056,-0.0576,-0.0644,-0.0692,-0.0719,-0.0793,-0.0841,-0.0901,-0.0878,-0.0951,-0.0932,-0.0883,-0.0888,-0.0845,-0.0806,-0.0817,-0.0735,-0.0731,-0.0779,-0.0789,-0.0775,-0.0777,-0.0762,-0.0762,-0.0763,-0.0795,0,-0.0458,-0.0507,-0.0524,-0.0588,-0.0607,-0.0646,-0.0659,-0.0683,-0.0688,-0.0692,-0.0729,-0.0696,-0.072,-0.0707,-0.0683,-0.0713,-0.0693,-0.0644,-0.0631,-0.0652,-0.066,-0.0664,-0.0595,-0.0593,-0.0591,-0.059,0,0,-0.0387,-0.0432,-0.0399,-0.045,-0.0482,-0.0448,-0.0511,-0.0521,-0.0536,-0.0555,-0.0528,-0.0565,-0.0562,-0.0626,-0.0622,-0.0607,-0.0589,-0.0633,-0.0628,-0.0633,-0.0637,-0.0647,-0.0653,-0.0587,-0.0587,-0.0586,-0.0586,0,-0.0377,-0.036,-0.0392,-0.0407,-0.042,-0.0423,-0.0434,-0.0437,-0.0451,-0.0493,-0.0485,-0.049,-0.0528,-0.0538,-0.0552,-0.0582,-0.0579,-0.0578,-0.0638,-0.0616,-0.0623,-0.0628,-0.064,-0.0646,-0.0582,-0.0582,-0.0582,0,-0.0348,-0.035,-0.0355,-0.0355,-0.0356,-0.0397,-0.0358,-0.0372,-0.0422,-0.039,-0.0455,-0.0441,-0.0447,-0.0486,-0.0503,-0.0489,-0.0553,-0.0538,-0.0544,-0.0557,-0.0532,-0.0539,-0.0546,-0.0471,-0.0471,-0.0471,0,0,-0.0345,-0.0354,-0.0347,-0.0351,-0.0353,-0.0354,-0.0359,-0.0366,-0.0373,-0.0382,-0.04,-0.0413,-0.0438,-0.0458,-0.0468,-0.0504,-0.0487,-0.0531,-0.0536,-0.0541,-0.0557,-0.0533,-0.0539,-0.0472,-0.0472,-0.0472,0,0,-0.0339,-0.0339,-0.0339,-0.0343,-0.0342,-0.0336,-0.0346,-0.0352,-0.0368,-0.038,-0.0394,-0.0401,-0.0445,-0.0431,-0.044,-0.0487,-0.0454,-0.0453,-0.0533,-0.0539,-0.0544,-0.0566,-0.0457,0,0,0,0,0,-0.0331,-0.0337,-0.0338,-0.0338,-0.0336,-0.0333,-0.0335,-0.0341,-0.0351,-0.0359,-0.0372,-0.0393,-0.0425,-0.0434,-0.0443,-0.0497,-0.0485,-0.0482,-0.048,-0.0589,-0.0595,-0.0601,0,0,0,0,0,0,-0.0331,-0.033,-0.0338,-0.0329,-0.0329,-0.0333,-0.0332,-0.0334,-0.035,-0.0352,-0.0387,-0.0393,-0.0402,-0.0432,-0.0439,-0.0491,-0.0455,-0.0484,-0.0482,-0.048,-0.0591,-0.0596,-0.0601,0,0,0,0,0,-0.0331,-0.033,-0.0325,-0.033,-0.033,-0.0337,-0.0333,-0.0334,-0.0352,-0.0369,-0.0376,-0.0358,-0.0401,-0.041,-0.0436,-0.0487,-0.0449,-0.0452,-0.0482,-0.0481,-0.048,-0.0594,0,0,0,0,0,0,-0.0331,-0.0333,-0.0325,-0.0326,-0.0332,-0.0338,-0.0338,-0.0334,-0.0369,-0.0374,-0.0341,-0.0341,-0.0401,-0.0408,-0.0415,-0.0486,-0.0445,-0.0448,-0.045,-0.0481,-0.048,-0.0479,0,0,0,0,0,0,-0.0334,-0.0334,-0.0326,-0.0328,-0.0329,-0.0338,-0.0338,-0.0367,-0.0371,-0.034,-0.0341,-0.0341,-0.0405,-0.0406,-0.0411,-0.0454,-0.0442,-0.0445,-0.0447,-0.0448,-0.048,-0.0479,0,0,0,0,0,0,-0.0334,-0.0334,-0.0328,-0.0329,-0.0329,-0.0336,-0.0365,-0.0373,-0.0344,-0.0339,-0.0345,-0.0345,-0.0404,-0.0409,-0.0409,-0.0449,-0.0453,-0.0442,-0.0444,-0.0445,-0.0446,0,0,0,0,0,0,0,-0.0334,-0.0333,-0.0322,-0.0329,-0.033,-0.0331,-0.0331,-0.0331,-0.0344,-0.0345,-0.0345,-0.0345,-0.0427,-0.0429,-0.0433,-0.0445,0,0,-0.0442,-0.0443,0,0,0,0,0,0,0,0,-0.0333,-0.0333,-0.0322,-0.0322,-0.0322,-0.0331,-0.0331,-0.0331,-0.0344,-0.0345,-0.0345,-0.0345,-0.0427,-0.043,-0.0432,0,0,0,0,0,0,0,0,0,0,0,0,0,0,0,-0.0322,-0.0322,0,-0.0331,-0.0331,-0.0331,-0.0344,-0.0344,-0.0345,-0.0345,-0.0428,-0.043,-0.0432,0,0,0,0,0,0,0,0,0,0,0,0,0,0,0,0,0,0,0,0,0,0,0,0,0,0,0,0,0,0,0,0,0,0,0,0,0,0,0,0,0,0,0,0,0,0,0,0,0,0,0,0,0,0,0,0,0,0,0,0,0,0,0,0,0,0,0,0,0]}]]]